Location: *
(28.2408°N, 53.4600°E)
Time: 16:44:17
(UTC+00:00)

ADEOS Rocket - Pass Details

Date: 22 September 2019
Orbit: 859 x 1306 km, 98.7° (Epoch: 19 October)

Event Time Altitude Azimuth Distance (km) Brightness Sun altitude
Rises 15:15:46 0° 27° (NNE) 4,215 6.1 -12.4°
Reaches altitude 10° 15:18:51 10° 38° (NE) 3,281 5.5 -13.0°
Maximum altitude 15:25:26 31° 97° (E) 2,129 4.2 -14.5°
Drops below altitude 10° 15:32:01 10° 156° (SSE) 3,299 5.4 -15.9°
Sets 15:35:04 0° 166° (SSE) 4,242 6.1 -16.6°
